Location: *
(43.9905°S, 176.4941°W)
Time: 05:41:55
(UTC+00:00)

Cosmos 1674 - Pass Details

Date: 08 December 2019
Orbit: 494 x 520 km, 82.5° (Epoch: 17 January)

Event Time Altitude Azimuth Distance (km) Brightness Sun altitude
Rises 09:32:58 0° 189° (S) 2,647 7.6 -17.4°
Reaches altitude 10° 09:35:06 10° 188° (S) 1,756 6.4 -17.6°
Maximum altitude 09:38:58 87° 99° (E) 525 2.6 -18.0°
Enters shadow 09:40:06 45° 11° (N) 719 2.9 -18.1°
